| time (UTC) | temp C | wind direction | speed KPH | gust KPH | rain 1hr cm | rain 24hr cm | rain mn cm | humidity % | barometer mb |
| 20260502130524 | 10 | 70 | 0.0 | 1.6 | 0.00 | 0.00 | 0.00 | 91 | 1016.4 |
| 20260502123522 | 10 | 72 | 0.0 | 1.6 | 0.00 | 0.00 | 0.00 | 91 | 1016.5 |
| 20260502123035 | 10 | 72 | 0.0 | 1.6 | 0.00 | 0.00 | 0.00 | 91 | 1016.5 |
| 20260502122523 | 10 | 0 | 0.0 | 1.6 | 0.00 | 0.00 | 0.00 | 91 | 1016.5 |
| 20260502122025 | 10 | 0 | 0.0 | 3.2 | 0.00 | 0.00 | 0.00 | 91 | 1016.6 |
| 20260502121541 | 10 | 30 | 0.0 | 3.2 | 0.00 | 0.00 | 0.00 | 91 | 1016.6 |
| 20260502121022 | 10 | 0 | 0.0 | 3.2 | 0.00 | 0.00 | 0.00 | 91 | 1016.7 |
| 20260502120523 | 10 | 0 | 0.0 | 1.6 | 0.00 | 0.00 | 0.00 | 91 | 1016.8 |
| 20260502115526 | 10 | 72 | 0.0 | 3.2 | 0.00 | 0.00 | 0.00 | 91 | 1016.7 |
| 20260502115023 | 10 | 72 | 0.0 | 3.2 | 0.00 | 0.00 | 0.00 | 91 | 1016.7 |
| 20260502114536 | 10 | 56 | 0.0 | 1.6 | 0.00 | 0.00 | 0.00 | 91 | 1016.8 |
| 20260502114026 | 10 | 56 | 0.0 | 4.8 | 0.00 | 0.00 | 0.00 | 91 | 1016.7 |
| 20260502113523 | 10 | 26 | 1.6 | 4.8 | 0.00 | 0.00 | 0.00 | 91 | 1016.5 |
| 20260502113042 | 10 | 18 | 1.6 | 4.8 | 0.00 | 0.00 | 0.00 | 91 | 1016.5 |
| 20260502112525 | 10 | 41 | 0.0 | 4.8 | 0.00 | 0.00 | 0.00 | 91 | 1016.6 |
| 20260502112026 | 10 | 101 | 0.0 | 6.4 | 0.00 | 0.00 | 0.00 | 91 | 1016.6 |
| 20260502111540 | 10 | 184 | 1.6 | 8.0 | 0.00 | 0.00 | 0.00 | 91 | 1016.8 |
| 20260502111022 | 10 | 150 | 3.2 | 9.7 | 0.00 | 0.00 | 0.00 | 91 | 1016.9 |
| 20260502110522 | 10 | 148 | 3.2 | 9.7 | 0.00 | 0.00 | 0.00 | 91 | 1017.0 |
| 20260502110046 | 10 | 167 | 1.6 | 4.8 | 0.00 | 0.00 | 0.00 | 92 | 1017.0 |
| 20260502105523 | 10 | 157 | 1.6 | 4.8 | 0.00 | 0.00 | 0.00 | 92 | 1017.1 |
| 20260502105024 | 10 | 145 | 0.0 | 1.6 | 0.00 | 0.00 | 0.00 | 92 | 1017.1 |
| 20260502104538 | 10 | 145 | 0.0 | 1.6 | 0.00 | 0.00 | 0.00 | 92 | 1017.2 |
| 20260502104023 | 9 | 0 | 0.0 | 1.6 | 0.00 | 0.00 | 0.00 | 91 | 1017.2 |
| 20260502103526 | 9 | 154 | 0.0 | 1.6 | 0.00 | 0.00 | 0.00 | 91 | 1017.1 |
| 20260502103036 | 9 | 154 | 0.0 | 1.6 | 0.00 | 0.00 | 0.00 | 91 | 1017.1 |
| 20260502102524 | 9 | 154 | 0.0 | 1.6 | 0.00 | 0.00 | 0.00 | 91 | 1017.1 |
| 20260502102023 | 9 | 0 | 0.0 | 0.0 | 0.00 | 0.00 | 0.00 | 91 | 1016.7 |
| 20260502101554 | 10 | 0 | 0.0 | 0.0 | 0.00 | 0.00 | 0.00 | 91 | 1016.7 |
| 20260502101024 | 10 | 0 | 0.0 | 0.0 | 0.00 | 0.00 | 0.00 | 90 | 1016.7 |
| 20260502100527 | 10 | 0 | 0.0 | 1.6 | 0.00 | 0.00 | 0.00 | 90 | 1016.7 |
| 20260502091025 | 10 | 154 | 0.0 | 1.6 | 0.00 | 0.00 | 0.00 | 89 | 1016.6 |
| 20260502090522 | 10 | 154 | 0.0 | 1.6 | 0.00 | 0.00 | 0.00 | 89 | 1016.7 |
| 20260502071026 | 11 | 134 | 3.2 | 8.0 | 0.00 | 0.00 | 0.00 | 85 | 1016.6 |
| 20260502070523 | 11 | 150 | 3.2 | 6.4 | 0.00 | 0.00 | 0.00 | 86 | 1016.5 |
| 20260502070053 | 11 | 124 | 3.2 | 6.4 | 0.00 | 0.00 | 0.00 | 85 | 1016.5 |
| 20260502065525 | 11 | 134 | 1.6 | 9.7 | 0.00 | 0.00 | 0.00 | 85 | 1016.5 |
| 20260502065028 | 11 | 147 | 3.2 | 9.7 | 0.00 | 0.00 | 0.00 | 85 | 1016.4 |
| 20260502064546 | 11 | 127 | 4.8 | 11.3 | 0.00 | 0.00 | 0.00 | 84 | 1016.5 |
| 20260502064024 | 11 | 146 | 4.8 | 12.9 | 0.00 | 0.00 | 0.00 | 84 | 1016.4 |
| 20260502063523 | 11 | 162 | 3.2 | 12.9 | 0.00 | 0.00 | 0.00 | 84 | 1016.4 |
| 20260502063039 | 11 | 154 | 3.2 | 11.3 | 0.00 | 0.00 | 0.00 | 84 | 1016.4 |
| 20260502062523 | 12 | 195 | 4.8 | 9.7 | 0.00 | 0.00 | 0.00 | 84 | 1016.4 |
| 20260502062024 | 12 | 210 | 1.6 | 6.4 | 0.00 | 0.00 | 0.00 | 84 | 1016.6 |
| 20260502061538 | 12 | 140 | 1.6 | 11.3 | 0.00 | 0.00 | 0.00 | 84 | 1016.5 |
| 20260502061023 | 12 | 174 | 4.8 | 11.3 | 0.00 | 0.00 | 0.00 | 84 | 1016.5 |
| 20260502060523 | 12 | 167 | 4.8 | 9.7 | 0.00 | 0.00 | 0.00 | 83 | 1016.5 |
| 20260502060043 | 12 | 180 | 4.8 | 11.3 | 0.00 | 0.00 | 0.00 | 83 | 1016.4 |
| 20260502055523 | 12 | 218 | 3.2 | 11.3 | 0.00 | 0.00 | 0.00 | 82 | 1016.3 |
| 20260502055024 | 12 | 134 | 4.8 | 9.7 | 0.00 | 0.00 | 0.00 | 83 | 1016.3 |
| 20260502054558 | 12 | 148 | 3.2 | 11.3 | 0.00 | 0.00 | 0.00 | 82 | 1016.4 |
| 20260502054025 | 12 | 191 | 3.2 | 11.3 | 0.00 | 0.00 | 0.00 | 82 | 1016.4 |
| 20260502053523 | 12 | 134 | 3.2 | 12.9 | 0.00 | 0.00 | 0.00 | 81 | 1016.3 |
| 20260502053043 | 12 | 342 | 6.4 | 12.9 | 0.00 | 0.00 | 0.00 | 81 | 1016.2 |
| 20260502052526 | 12 | 152 | 4.8 | 9.7 | 0.00 | 0.00 | 0.00 | 80 | 1016.2 |
| 20260502052025 | 13 | 142 | 3.2 | 12.9 | 0.00 | 0.00 | 0.00 | 80 | 1016.1 |
| 20260502051538 | 13 | 165 | 4.8 | 12.9 | 0.00 | 0.00 | 0.00 | 80 | 1016.1 |
| 20260502051024 | 13 | 145 | 6.4 | 17.7 | 0.00 | 0.00 | 0.00 | 79 | 1016.1 |
| 20260502050523 | 13 | 165 | 8.0 | 17.7 | 0.00 | 0.00 | 0.00 | 79 | 1016.0 |
| 20260502050036 | 13 | 141 | 4.8 | 17.7 | 0.00 | 0.00 | 0.00 | 78 | 1016.0 |
| 20260502045523 | 13 | 147 | 6.4 | 17.7 | 0.00 | 0.00 | 0.00 | 77 | 1015.9 |
| 20260502045023 | 14 | 199 | 3.2 | 9.7 | 0.00 | 0.00 | 0.00 | 77 | 1015.9 |
| 20260502044541 | 14 | 210 | 4.8 | 8.0 | 0.00 | 0.00 | 0.00 | 77 | 1015.9 |
| 20260502044022 | 15 | 189 | 4.8 | 9.7 | 0.00 | 0.00 | 0.00 | 78 | 1015.8 |
| 20260502043524 | 15 | 149 | 4.8 | 12.9 | 0.00 | 0.00 | 0.00 | 77 | 1015.8 |
| 20260502043051 | 15 | 209 | 4.8 | 12.9 | 0.00 | 0.00 | 0.00 | 75 | 1015.7 |
| 20260502042524 | 15 | 146 | 4.8 | 11.3 | 0.00 | 0.00 | 0.00 | 74 | 1015.6 |
| 20260502042023 | 15 | 202 | 4.8 | 9.7 | 0.00 | 0.00 | 0.00 | 73 | 1015.6 |
| 20260502041603 | 16 | 202 | 4.8 | 8.0 | 0.00 | 0.00 | 0.00 | 72 | 1015.5 |
| 20260502041023 | 16 | 213 | 3.2 | 12.9 | 0.00 | 0.00 | 0.00 | 72 | 1015.4 |
| 20260502040523 | 16 | 153 | 4.8 | 12.9 | 0.00 | 0.00 | 0.00 | 71 | 1015.4 |
| 20260502040050 | 16 | 136 | 6.4 | 12.9 | 0.00 | 0.00 | 0.00 | 71 | 1015.3 |
| 20260502035523 | 16 | 227 | 6.4 | 12.9 | 0.00 | 0.00 | 0.00 | 71 | 1015.2 |
| 20260502035023 | 16 | 185 | 4.8 | 14.5 | 0.00 | 0.00 | 0.00 | 70 | 1015.1 |
| 20260502034536 | 16 | 218 | 6.4 | 14.5 | 0.00 | 0.00 | 0.00 | 70 | 1015.0 |
| 20260502034025 | 17 | 146 | 8.0 | 14.5 | 0.00 | 0.00 | 0.00 | 69 | 1014.9 |
| 20260502033523 | 17 | 205 | 8.0 | 14.5 | 0.00 | 0.00 | 0.00 | 69 | 1014.8 |
| 20260502033041 | 17 | 198 | 9.7 | 14.5 | 0.00 | 0.00 | 0.00 | 69 | 1014.9 |
| 20260502032523 | 17 | 164 | 8.0 | 12.9 | 0.00 | 0.00 | 0.00 | 68 | 1014.7 |
| 20260502032022 | 17 | 210 | 8.0 | 12.9 | 0.00 | 0.00 | 0.00 | 69 | 1014.6 |
| 20260502031539 | 18 | 216 | 6.4 | 12.9 | 0.00 | 0.00 | 0.00 | 66 | 1014.6 |
| 20260502031023 | 18 | 207 | 6.4 | 12.9 | 0.00 | 0.00 | 0.00 | 66 | 1014.5 |
| 20260502030523 | 18 | 175 | 3.2 | 9.7 | 0.00 | 0.00 | 0.00 | 65 | 1014.4 |
| 20260502030050 | 18 | 209 | 1.6 | 9.7 | 0.00 | 0.00 | 0.00 | 64 | 1014.3 |
| 20260502025528 | 18 | 140 | 3.2 | 6.4 | 0.00 | 0.00 | 0.00 | 64 | 1014.3 |
| 20260502025025 | 19 | 135 | 0.0 | 3.2 | 0.00 | 0.00 | 0.00 | 63 | 1014.3 |
| 20260502024541 | 19 | 135 | 0.0 | 3.2 | 0.00 | 0.00 | 0.00 | 61 | 1014.2 |
| 20260502024027 | 19 | 0 | 1.6 | 3.2 | 0.00 | 0.00 | 0.00 | 60 | 1014.1 |
| 20260502023527 | 20 | 140 | 0.0 | 9.7 | 0.00 | 0.00 | 0.00 | 60 | 1014.1 |
| 20260502023100 | 20 | 141 | 1.6 | 9.7 | 0.00 | 0.00 | 0.00 | 59 | 1014.0 |
| 20260502022525 | 20 | 169 | 3.2 | 9.7 | 0.00 | 0.00 | 0.00 | 58 | 1013.8 |
| 20260502022026 | 20 | 175 | 3.2 | 11.3 | 0.00 | 0.00 | 0.00 | 57 | 1013.8 |
| 20260502021541 | 20 | 172 | 3.2 | 11.3 | 0.00 | 0.00 | 0.00 | 56 | 1013.9 |
| 20260502021030 | 20 | 207 | 4.8 | 9.7 | 0.00 | 0.00 | 0.00 | 56 | 1013.8 |
| 20260502020525 | 20 | 140 | 3.2 | 11.3 | 0.00 | 0.00 | 0.00 | 56 | 1013.7 |
| 20260502020040 | 21 | 171 | 4.8 | 12.9 | 0.00 | 0.00 | 0.00 | 58 | 1013.7 |
| 20260502015525 | 21 | 210 | 6.4 | 12.9 | 0.00 | 0.00 | 0.00 | 55 | 1013.6 |
| 20260502015027 | 21 | 168 | 6.4 | 12.9 | 0.00 | 0.00 | 0.00 | 55 | 1013.7 |
| 20260502014540 | 21 | 188 | 4.8 | 16.1 | 0.00 | 0.00 | 0.00 | 55 | 1013.7 |
| 20260502014031 | 21 | 210 | 6.4 | 16.1 | 0.00 | 0.00 | 0.00 | 55 | 1013.5 |
| 20260502013527 | 22 | 138 | 4.8 | 14.5 | 0.00 | 0.00 | 0.00 | 55 | 1013.6 |
| 20260502013042 | 22 | 146 | 6.4 | 9.7 | 0.00 | 0.00 | 0.00 | 54 | 1013.5 |
| 20260502012527 | 22 | 176 | 3.2 | 8.0 | 0.00 | 0.00 | 0.00 | 54 | 1013.5 |
| 20260502012025 | 22 | 200 | 1.6 | 11.3 | 0.00 | 0.00 | 0.00 | 54 | 1013.6 |
| 20260502011559 | 22 | 159 | 3.2 | 11.3 | 0.00 | 0.00 | 0.00 | 55 | 1013.6 |
| 20260502011028 | 22 | 167 | 3.2 | 12.9 | 0.00 | 0.00 | 0.00 | 54 | 1013.5 |
| 20260502010525 | 23 | 240 | 8.0 | 12.9 | 0.00 | 0.00 | 0.00 | 52 | 1013.5 |
| 20260502010039 | 23 | 205 | 3.2 | 8.0 | 0.00 | 0.00 | 0.00 | 51 | 1013.5 |
| 20260502005525 | 23 | 30 | 1.6 | 6.4 | 0.00 | 0.00 | 0.00 | 53 | 1013.5 |
| 20260502005030 | 23 | 42 | 3.2 | 6.4 | 0.00 | 0.00 | 0.00 | 54 | 1013.4 |
| 20260502004543 | 24 | 18 | 1.6 | 4.8 | 0.00 | 0.00 | 0.00 | 51 | 1013.6 |
| 20260502004025 | 23 | 51 | 1.6 | 6.4 | 0.00 | 0.00 | 0.00 | 52 | 1013.5 |
| 20260502003523 | 23 | 25 | 3.2 | 6.4 | 0.00 | 0.00 | 0.00 | 53 | 1013.4 |
| 20260502003035 | 23 | 18 | 1.6 | 8.0 | 0.00 | 0.00 | 0.00 | 55 | 1013.4 |
| 20260502002527 | 22 | 179 | 1.6 | 11.3 | 0.00 | 0.00 | 0.00 | 57 | 1013.4 |
| 20260502002027 | 21 | 201 | 4.8 | 11.3 | 0.00 | 0.00 | 0.00 | 61 | 1013.4 |
| 20260502001544 | 22 | 211 | 6.4 | 11.3 | 0.00 | 0.00 | 0.00 | 57 | 1013.3 |
| 20260502001032 | 22 | 184 | 8.0 | 12.9 | 0.00 | 0.00 | 0.00 | 55 | 1013.2 |
| 20260502000525 | 22 | 198 | 8.0 | 12.9 | 0.00 | 0.00 | 0.00 | 55 | 1013.2 |
| 20260502000054 | 22 | 217 | 8.0 | 14.5 | 0.00 | 0.00 | 0.00 | 57 | 1013.1 |
| 20260501235527 | 22 | 204 | 11.3 | 14.5 | 0.00 | 0.00 | 0.00 | 58 | 1013.1 |
| 20260501235024 | 22 | 205 | 11.3 | 16.1 | 0.00 | 0.00 | 0.00 | 55 | 1013.2 |
| 20260501234538 | 22 | 217 | 9.7 | 16.1 | 0.00 | 0.00 | 0.00 | 58 | 1013.2 |
| 20260501234023 | 22 | 204 | 11.3 | 16.1 | 0.00 | 0.00 | 0.00 | 58 | 1013.2 |
| 20260501233523 | 23 | 178 | 9.7 | 12.9 | 0.00 | 0.00 | 0.00 | 54 | 1013.2 |
| 20260501233043 | 23 | 218 | 9.7 | 12.9 | 0.00 | 0.00 | 0.00 | 50 | 1013.2 |
| 20260501232525 | 23 | 211 | 6.4 | 12.9 | 0.00 | 0.00 | 0.00 | 53 | 1013.3 |
| 20260501232024 | 23 | 213 | 8.0 | 11.3 | 0.00 | 0.00 | 0.00 | 53 | 1013.3 |
| 20260501231550 | 23 | 203 | 8.0 | 11.3 | 0.00 | 0.00 | 0.00 | 53 | 1013.4 |
| 20260501231023 | 23 | 207 | 6.4 | 11.3 | 0.00 | 0.00 | 0.00 | 55 | 1013.5 |
| 20260501230523 | 23 | 224 | 6.4 | 11.3 | 0.00 | 0.00 | 0.00 | 53 | 1013.6 |
| 20260501230109 | 22 | 211 | 9.7 | 11.3 | 0.00 | 0.00 | 0.00 | 55 | 1013.7 |
| 20260501225529 | 23 | 201 | 3.2 | 9.7 | 0.00 | 0.00 | 0.00 | 57 | 1013.7 |
| 20260501225025 | 23 | 9 | 1.6 | 3.2 | 0.00 | 0.00 | 0.00 | 55 | 1013.8 |
| 20260501224554 | 22 | 23 | 1.6 | 4.8 | 0.00 | 0.00 | 0.00 | 55 | 1013.9 |
| 20260501224023 | 21 | 356 | 0.0 | 4.8 | 0.00 | 0.00 | 0.00 | 63 | 1013.9 |
| 20260501223523 | 22 | 356 | 1.6 | 6.4 | 0.00 | 0.00 | 0.00 | 63 | 1013.9 |
| 20260501223036 | 22 | 24 | 1.6 | 8.0 | 0.00 | 0.00 | 0.00 | 62 | 1014.0 |
| 20260501222523 | 22 | 355 | 3.2 | 8.0 | 0.00 | 0.00 | 0.00 | 60 | 1014.1 |
| 20260501222023 | 22 | 199 | 4.8 | 8.0 | 0.00 | 0.00 | 0.00 | 60 | 1014.2 |
| 20260501221536 | 22 | 174 | 1.6 | 9.7 | 0.00 | 0.00 | 0.00 | 63 | 1014.2 |
| 20260501221026 | 21 | 188 | 6.4 | 9.7 | 0.00 | 0.00 | 0.00 | 61 | 1014.2 |
| 20260501220524 | 21 | 198 | 4.8 | 9.7 | 0.00 | 0.00 | 0.00 | 63 | 1014.3 |
| 20260501220042 | 21 | 205 | 8.0 | 9.7 | 0.00 | 0.00 | 0.00 | 65 | 1014.4 |
| 20260501215526 | 21 | 206 | 8.0 | 9.7 | 0.00 | 0.00 | 0.00 | 64 | 1014.4 |
| 20260501215028 | 21 | 209 | 4.8 | 9.7 | 0.00 | 0.00 | 0.00 | 63 | 1014.5 |
| 20260501214540 | 20 | 201 | 4.8 | 11.3 | 0.00 | 0.00 | 0.00 | 63 | 1014.5 |
| 20260501214022 | 20 | 211 | 8.0 | 11.3 | 0.00 | 0.00 | 0.00 | 65 | 1014.5 |
| 20260501213522 | 20 | 204 | 8.0 | 12.9 | 0.00 | 0.00 | 0.00 | 67 | 1014.6 |
| 20260501213040 | 20 | 203 | 8.0 | 12.9 | 0.00 | 0.00 | 0.00 | 68 | 1014.7 |
| 20260501212523 | 20 | 215 | 9.7 | 12.9 | 0.00 | 0.00 | 0.00 | 71 | 1014.9 |
| 20260501212023 | 20 | 207 | 8.0 | 12.9 | 0.00 | 0.00 | 0.00 | 68 | 1014.9 |
| 20260501211538 | 20 | 201 | 9.7 | 12.9 | 0.00 | 0.00 | 0.00 | 67 | 1014.9 |
| 20260501211022 | 20 | 217 | 9.7 | 12.9 | 0.00 | 0.00 | 0.00 | 66 | 1014.9 |
| 20260501210527 | 20 | 212 | 8.0 | 14.5 | 0.00 | 0.00 | 0.00 | 62 | 1014.9 |
| 20260501210038 | 20 | 197 | 9.7 | 14.5 | 0.00 | 0.00 | 0.00 | 63 | 1014.9 |
| 20260501205523 | 20 | 200 | 9.7 | 14.5 | 0.00 | 0.00 | 0.00 | 65 | 1014.9 |
| 20260501205023 | 20 | 212 | 9.7 | 14.5 | 0.00 | 0.00 | 0.00 | 68 | 1014.9 |
| 20260501204543 | 19 | 206 | 8.0 | 12.9 | 0.00 | 0.00 | 0.00 | 69 | 1015.0 |
| 20260501204027 | 19 | 202 | 9.7 | 12.9 | 0.00 | 0.00 | 0.00 | 71 | 1015.0 |
| 20260501203527 | 19 | 204 | 8.0 | 12.9 | 0.00 | 0.00 | 0.00 | 72 | 1015.0 |
| 20260501203040 | 18 | 229 | 9.7 | 12.9 | 0.00 | 0.00 | 0.00 | 73 | 1015.0 |
| 20260501202527 | 18 | 169 | 9.7 | 12.9 | 0.00 | 0.00 | 0.00 | 72 | 1015.1 |
| 20260501202031 | 18 | 184 | 11.3 | 16.1 | 0.00 | 0.00 | 0.00 | 71 | 1015.2 |
| 20260501201541 | 18 | 217 | 11.3 | 16.1 | 0.00 | 0.00 | 0.00 | 72 | 1015.1 |
| 20260501201027 | 18 | 212 | 9.7 | 12.9 | 0.00 | 0.00 | 0.00 | 74 | 1015.2 |
| 20260501200530 | 18 | 209 | 9.7 | 12.9 | 0.00 | 0.00 | 0.00 | 76 | 1015.3 |
| 20260501200038 | 18 | 212 | 9.7 | 14.5 | 0.00 | 0.00 | 0.00 | 77 | 1015.3 |
| 20260501195527 | 18 | 216 | 9.7 | 14.5 | 0.00 | 0.00 | 0.00 | 74 | 1015.3 |
| 20260501195027 | 18 | 212 | 9.7 | 14.5 | 0.00 | 0.00 | 0.00 | 70 | 1015.3 |
| 20260501194542 | 18 | 203 | 9.7 | 12.9 | 0.00 | 0.00 | 0.00 | 76 | 1015.4 |
| 20260501194026 | 18 | 205 | 8.0 | 11.3 | 0.00 | 0.00 | 0.00 | 73 | 1015.4 |
| 20260501193526 | 18 | 214 | 6.4 | 12.9 | 0.00 | 0.00 | 0.00 | 73 | 1015.6 |
| 20260501193041 | 17 | 202 | 8.0 | 12.9 | 0.00 | 0.00 | 0.00 | 76 | 1015.5 |
| 20260501192525 | 17 | 192 | 9.7 | 12.9 | 0.00 | 0.00 | 0.00 | 77 | 1015.6 |
| 20260501192031 | 17 | 207 | 9.7 | 12.9 | 0.00 | 0.00 | 0.00 | 79 | 1015.7 |
| 20260501191539 | 17 | 217 | 9.7 | 14.5 | 0.00 | 0.00 | 0.00 | 79 | 1015.8 |
| 20260501191030 | 17 | 184 | 9.7 | 14.5 | 0.00 | 0.00 | 0.00 | 80 | 1015.9 |
| 20260501190529 | 17 | 185 | 9.7 | 14.5 | 0.00 | 0.00 | 0.00 | 78 | 1015.9 |
| 20260501190038 | 17 | 205 | 8.0 | 14.5 | 0.00 | 0.00 | 0.00 | 75 | 1016.0 |
| 20260501185527 | 18 | 216 | 9.7 | 12.9 | 0.00 | 0.00 | 0.00 | 74 | 1015.9 |
| 20260501185028 | 18 | 214 | 8.0 | 11.3 | 0.00 | 0.00 | 0.00 | 70 | 1015.9 |
| 20260501184537 | 17 | 220 | 4.8 | 11.3 | 0.00 | 0.00 | 0.00 | 70 | 1016.0 |
| 20260501184024 | 17 | 202 | 4.8 | 11.3 | 0.00 | 0.00 | 0.00 | 68 | 1016.1 |
| 20260501183527 | 17 | 217 | 8.0 | 12.9 | 0.00 | 0.00 | 0.00 | 70 | 1016.1 |
| 20260501183042 | 17 | 210 | 6.4 | 12.9 | 0.00 | 0.00 | 0.00 | 72 | 1016.2 |
| 20260501182527 | 17 | 203 | 8.0 | 11.3 | 0.00 | 0.00 | 0.00 | 71 | 1016.3 |
| 20260501182025 | 16 | 219 | 6.4 | 11.3 | 0.00 | 0.00 | 0.00 | 71 | 1016.2 |
| 20260501181542 | 16 | 197 | 6.4 | 11.3 | 0.00 | 0.00 | 0.00 | 74 | 1016.2 |
| 20260501181023 | 16 | 185 | 8.0 | 11.3 | 0.00 | 0.00 | 0.00 | 73 | 1016.2 |
| 20260501180527 | 15 | 208 | 8.0 | 11.3 | 0.00 | 0.00 | 0.00 | 80 | 1016.2 |
| 20260501180046 | 15 | 181 | 8.0 | 12.9 | 0.00 | 0.00 | 0.00 | 83 | 1016.2 |
| 20260501175524 | 15 | 202 | 9.7 | 12.9 | 0.00 | 0.00 | 0.00 | 83 | 1016.3 |
| 20260501175027 | 15 | 197 | 9.7 | 11.3 | 0.00 | 0.00 | 0.00 | 83 | 1016.3 |
| 20260501174540 | 15 | 138 | 6.4 | 9.7 | 0.00 | 0.00 | 0.00 | 82 | 1016.3 |
| 20260501174026 | 15 | 199 | 4.8 | 6.4 | 0.00 | 0.00 | 0.00 | 79 | 1016.4 |
| 20260501173527 | 15 | 209 | 3.2 | 4.8 | 0.00 | 0.00 | 0.00 | 79 | 1016.4 |
| 20260501173038 | 15 | 205 | 3.2 | 4.8 | 0.00 | 0.00 | 0.00 | 81 | 1016.4 |
| 20260501172527 | 15 | 205 | 1.6 | 4.8 | 0.00 | 0.00 | 0.00 | 81 | 1016.4 |
| 20260501172028 | 15 | 203 | 1.6 | 4.8 | 0.00 | 0.00 | 0.00 | 81 | 1016.5 |
| 20260501171541 | 14 | 162 | 0.0 | 1.6 | 0.00 | 0.00 | 0.00 | 78 | 1016.5 |
| 20260501171026 | 13 | 162 | 0.0 | 1.6 | 0.00 | 0.00 | 0.00 | 84 | 1016.5 |
| 20260501170525 | 13 | 162 | 1.6 | 1.6 | 0.00 | 0.00 | 0.00 | 84 | 1016.5 |
| 20260501170041 | 13 | 162 | 0.0 | 1.6 | 0.00 | 0.00 | 0.00 | 85 | 1016.6 |
| 20260501165526 | 13 | 0 | 0.0 | 1.6 | 0.00 | 0.00 | 0.00 | 85 | 1016.6 |
| 20260501165024 | 12 | 0 | 0.0 | 1.6 | 0.00 | 0.00 | 0.00 | 87 | 1016.6 |
| 20260501164601 | 12 | 0 | 0.0 | 1.6 | 0.00 | 0.00 | 0.00 | 88 | 1016.7 |
| 20260501164023 | 12 | 162 | 0.0 | 3.2 | 0.00 | 0.00 | 0.00 | 87 | 1016.7 |
| 20260501163524 | 12 | 162 | 0.0 | 3.2 | 0.00 | 0.00 | 0.00 | 88 | 1016.9 |
| 20260501163039 | 12 | 162 | 1.6 | 3.2 | 0.00 | 0.00 | 0.00 | 88 | 1016.8 |
| 20260501162523 | 12 | 162 | 1.6 | 4.8 | 0.00 | 0.00 | 0.00 | 88 | 1017.0 |
| 20260501162025 | 12 | 161 | 1.6 | 6.4 | 0.00 | 0.00 | 0.00 | 88 | 1017.0 |
| 20260501161540 | 12 | 172 | 3.2 | 6.4 | 0.00 | 0.00 | 0.00 | 88 | 1017.0 |
| 20260501161028 | 12 | 169 | 3.2 | 6.4 | 0.00 | 0.00 | 0.00 | 87 | 1017.0 |
| 20260501160523 | 12 | 96 | 1.6 | 3.2 | 0.00 | 0.00 | 0.00 | 87 | 1017.1 |
| 20260501160041 | 12 | 0 | 0.0 | 1.6 | 0.00 | 0.00 | 0.00 | 88 | 1017.0 |
| 20260501155524 | 11 | 0 | 0.0 | 1.6 | 0.00 | 0.00 | 0.00 | 88 | 1017.0 |
| 20260501155024 | 11 | 0 | 0.0 | 1.6 | 0.00 | 0.00 | 0.00 | 89 | 1017.0 |
| 20260501154545 | 11 | 0 | 0.0 | 1.6 | 0.00 | 0.00 | 0.00 | 89 | 1017.0 |
| 20260501154023 | 11 | 0 | 0.0 | 1.6 | 0.00 | 0.00 | 0.00 | 90 | 1017.1 |
| 20260501153523 | 11 | 0 | 0.0 | 1.6 | 0.00 | 0.00 | 0.00 | 90 | 1017.0 |
| 20260501153042 | 11 | 0 | 0.0 | 1.6 | 0.00 | 0.00 | 0.00 | 90 | 1017.1 |
| 20260501152524 | 11 | 89 | 0.0 | 1.6 | 0.00 | 0.00 | 0.00 | 90 | 1017.1 |
| 20260501152023 | 10 | 0 | 0.0 | 1.6 | 0.00 | 0.00 | 0.00 | 90 | 1017.1 |
| 20260501151543 | 10 | 0 | 0.0 | 1.6 | 0.00 | 0.00 | 0.00 | 90 | 1017.1 |
| 20260501151024 | 10 | 91 | 0.0 | 1.6 | 0.00 | 0.00 | 0.00 | 90 | 1017.1 |
| 20260501150524 | 10 | 91 | 0.0 | 1.6 | 0.00 | 0.00 | 0.00 | 90 | 1017.1 |
| 20260501150042 | 10 | 0 | 0.0 | 0.0 | 0.00 | 0.00 | 0.00 | 90 | 1017.1 |
| 20260501145524 | 10 | 0 | 0.0 | 0.0 | 0.00 | 0.00 | 0.00 | 90 | 1017.1 |
| 20260501145024 | 10 | 0 | 0.0 | 1.6 | 0.00 | 0.00 | 0.00 | 90 | 1017.1 |
| 20260501144541 | 10 | 0 | 0.0 | 1.6 | 0.00 | 0.00 | 0.00 | 90 | 1017.1 |
| 20260501144027 | 10 | 0 | 0.0 | 1.6 | 0.00 | 0.00 | 0.00 | 90 | 1017.0 |
| 20260501143537 | 10 | 0 | 0.0 | 0.0 | 0.00 | 0.00 | 0.00 | 91 | 1017.0 |
| 20260501143057 | 10 | 0 | 0.0 | 3.2 | 0.00 | 0.00 | 0.00 | 91 | 1016.9 |